Overview Statistics Trail Chart Weather Telemetry Raw packets
 

This is the latest recevied weather packets stored in our database for station/object KD0MAC. If no packets are shown the sender has not sent any weather packets the latest 10 day(s).

<< 100 101 102 103 104 105 106 >>
Time Temp. Humidity Pressure Rain* Wind** Luminosity Snow
1787944514 33.33° C 44% 1017.6 hPa 0 mm - 546 W/m² -
1787944209 33.33° C 44% 1017.6 hPa 0 mm - 548 W/m² -
1787943908 33.33° C 43% 1017.9 hPa 0 mm - 547 W/m² -
1787943609 33.33° C 46% 1017.9 hPa 0 mm - 551 W/m² -
1787943308 33.33° C 44% 1017.9 hPa 0 mm - 553 W/m² -
1787943010 32.78° C 45% 1017.9 hPa 0 mm - 552 W/m² -
1787942709 32.78° C 47% 1017.9 hPa 0 mm - 553 W/m² -
1787942409 32.22° C 45% 1017.9 hPa 0 mm - 553 W/m² -
1787942108 32.22° C 44% 1018.3 hPa 0 mm - 551 W/m² -
1787941809 32.22° C 46% 1018.3 hPa 0 mm - 550 W/m² -
1787941510 32.22° C 47% 1018.3 hPa 0 mm - 551 W/m² -
1787941209 31.67° C 46% 1018.3 hPa 0 mm - 549 W/m² -
1787940914 31.67° C 48% 1018.3 hPa 0 mm - 546 W/m² -
1787940609 31.67° C 48% 1018.3 hPa 0 mm - 546 W/m² -
1787940311 31.67° C 47% 1018.6 hPa 0 mm - 545 W/m² -
1787939709 31.11° C 50% 1018.6 hPa 0 mm - 536 W/m² -
1787939409 31.11° C 51% 1018.6 hPa 0 mm - 533 W/m² -
1787939109 31.11° C 50% 1018.6 hPa 0 mm - 530 W/m² -
1787938809 31.11° C 51% 1019 hPa 0 mm - 525 W/m² -
1787938509 30.56° C 51% 1019 hPa 0 mm - 518 W/m² -
1787938209 30.56° C 50% 1019 hPa 0 mm - 513 W/m² -
1787937908 30.56° C 51% 1019 hPa 0 mm - 508 W/m² -
1787937610 30° C 55% 1019.3 hPa 0 mm - 534 W/m² -
1787937309 30° C 51% 1019.3 hPa 0 mm - 526 W/m² -
1787937009 29.44° C 52% 1019.3 hPa 0 mm - 520 W/m² -

* Rain latest hour (hover to see other rain measurements)
** Current wind speed in m/s (hover to see current wind gust speed)